Estherville, IA

3:04 AM CST on January 23, 2018 (GMT -0600)
Estherville Municipal

Weather History for KEST - April, 2013

Change the Weather History Date:

Thursday, April 4, 2013

  Actual Average Record
Temperature  
Mean Temperature 41 °F 42 °F  
Max Temperature 53 °F 52 °F 80 °F (2005)
Min Temperature 29 °F 31 °F 14 °F (2002)
Degree Days  
Heating Degree Days 24 23  
Month to date heating degree days 124 96  
Since 1 July heating degree days 6962 7011  
Cooling Degree Days 0 0  
Month to date cooling degree days 0 0  
Year to date cooling degree days 0 0  
Moisture  
Dew Point 28 °F    
Average Humidity 61    
Maximum Humidity 82    
Minimum Humidity 39    
Precipitation  
Precipitation T in 0.09 in 0.84 in (1985)
Month to date precipitation T 0.33  
Sea Level Pressure  
Sea Level Pressure 30.14 in    
Wind  
Wind Speed 13 mph (NW)    
Max Wind Speed 22 mph    
Max Gust Speed 30 mph    
Visibility 10 miles    
Events Rain    
T = Trace of Precipitation, MM = Missing Value Source: NWS Daily Summary

Daily Weather History Graph

Daily Weather History Graph

Search for Another Location

Airport or City:

Trip Planner

Search our weather history database for the weather conditions in past years. The results will help you decide how hot, cold, wet, or windy it might be!

Date:

Astronomy

Apr. 04, 2013 Rise Set
Actual Time 6:54 AM CDT 7:49 PM CDT
Civil Twilight 6:25 AM CDT 8:18 PM CDT
Nautical Twilight 5:51 AM CDT 8:53 PM CDT
Astronomical Twilight 5:15 AM CDT 9:29 PM CDT
Moon 3:32 AM CDT (4/4) 1:59 PM CDT (4/4)
Length of Visible Light 13h 52m
Length of Day
12h 54m
Waning Crescent, 33% of the Moon is Illuminated
Apr 4
Waning Crescent
Apr 10
New
Apr 18
First Quarter
Apr 25
Full
May 2
Last Quarter

Hourly Weather History & Observations

Time (CDT) Temp. Windchill Dew Point Humidity Pressure Visibility Wind Dir Wind Speed Gust Speed Precip Events Conditions
12:52 AM 37.0 °F 29.3 °F 28.0 °F 70% 30.14 in 10.0 mi South 11.5 mph - N/A   Clear
1:52 AM 37.0 °F 28.9 °F 27.0 °F 67% 30.14 in 10.0 mi SSW 12.7 mph - N/A   Clear
2:52 AM 35.1 °F 26.4 °F 27.0 °F 72% 30.13 in 10.0 mi SW 12.7 mph - N/A   Clear
3:52 AM 35.1 °F 27.9 °F 27.0 °F 72% 30.12 in 10.0 mi SSW 9.2 mph - N/A   Clear
4:52 AM 35.1 °F 26.9 °F 27.0 °F 72% 30.10 in 10.0 mi SSW 11.5 mph - N/A   Clear
5:52 AM 36.0 °F 26.7 °F 27.0 °F 70% 30.08 in 10.0 mi SSW 15.0 mph - N/A   Partly Cloudy
7:52 AM 36.0 °F 28.0 °F 28.9 °F 76% 30.10 in 10.0 mi WSW 11.5 mph - N/A   Mostly Cloudy
8:52 AM 39.0 °F 30.6 °F 30.0 °F 70% 30.13 in 10.0 mi NW 15.0 mph - N/A   Scattered Clouds
9:52 AM 37.9 °F 30.9 °F 30.9 °F 76% 30.12 in 7.0 mi NNW 10.4 mph - 0.00 in Rain Light Rain
10:52 AM 42.1 °F 35.2 °F 30.9 °F 65% 30.14 in 10.0 mi NNW 12.7 mph - 0.00 in   Partly Cloudy
11:52 AM 46.9 °F - 30.0 °F 52% 30.14 in 10.0 mi NNW 13.8 mph - N/A   Clear
12:52 PM 50.0 °F - 27.0 °F 41% 30.13 in 10.0 mi NNW 16.1 mph - N/A   Clear
1:52 PM 52.0 °F - 28.0 °F 40% 30.13 in 10.0 mi NNW 19.6 mph 26.5 mph N/A   Clear
2:52 PM 52.0 °F - 28.9 °F 41% 30.12 in 10.0 mi NNW 18.4 mph 26.5 mph N/A   Clear
3:52 PM 52.0 °F - 28.9 °F 41% 30.11 in 10.0 mi NNW 16.1 mph 23.0 mph N/A   Clear
4:52 PM 52.0 °F - 28.0 °F 40% 30.11 in 10.0 mi NNW 18.4 mph 23.0 mph N/A   Clear
5:52 PM 50.0 °F - 28.9 °F 44% 30.12 in 10.0 mi North 13.8 mph 24.2 mph N/A   Clear
6:52 PM 46.9 °F - 28.9 °F 50% 30.14 in 10.0 mi NNW 18.4 mph 23.0 mph N/A   Scattered Clouds
7:52 PM 42.1 °F 35.7 °F 30.0 °F 62% 30.15 in 10.0 mi North 11.5 mph - N/A   Mostly Cloudy
8:52 PM 37.0 °F 28.9 °F 28.9 °F 73% 30.17 in 10.0 mi North 12.7 mph - N/A   Clear
9:52 PM 34.0 °F 26.0 °F 28.0 °F 79% 30.19 in 10.0 mi North 10.4 mph - N/A   Clear
10:52 PM 32.0 °F 23.6 °F 26.1 °F 79% 30.20 in 10.0 mi NNW 10.4 mph - N/A   Clear
11:52 PM 30.0 °F 21.1 °F 25.0 °F 82% 30.21 in 10.0 mi North 10.4 mph - N/A   Clear